Location: Unspecified
(35.6961°N, 0.0000°E)
Time: 13:15:54
(UTC+00:00)

UNISAT 6 - Pass Details

Date: 19 June 2019
Orbit: 608 x 688 km, 97.7° (Epoch: 17 August)

Event Time Altitude Azimuth Distance (km) Brightness Sun altitude
Rises 20:27:39 0° 20° (NNE) 2,884 ? -12.2°
Reaches altitude 10° 20:29:55 10° 27° (NNE) 1,982 ? -12.6°
Maximum altitude 20:34:00 42° 99° (E) 893 ? -13.2°
Enters shadow 20:37:04 17° 164° (SSE) 1,605 ? -13.7°
